Regional Weather Roundup
Issued by NWS Boston, MA

Current Version | Previous Version | Graphics & Text | Print | Product List | Glossary Off
Versions: 1 2 3 4 5 6 7 8 9 10 11 12 13 14 15 16 17 18 19 20 21 22 23 24 25 26 27 28 29 30 31 32 33 34 35 36 37 38 39 40 41 42 43 44 45 46 47 48 49 50
693 ASUS41 KBOX 271010 RWRBOX REGIONAL WEATHER ROUNDUP NATIONAL WEATHER SERVICE TAUNTON MA 600 AM EDT THU APR 27 2017 NOTE: "FAIR" INDICATES FEW OR NO CLOUDS BELOW 12,000 FEET WITH NO SIGNIFICANT WEATHER AND/OR OBSTRUCTIONS TO VISIBILITY. MAZALL-271100- EASTERN MASSACHUSETTS CITY SKY/WX TMP DP RH WIND PRES REMARKS BOSTON FOG 51 51 100 NW8 29.88R VSB 1/2 BEVERLY FOG 50 50 100 NW6 29.87R VSB 1/4 LAWRENCE FOG 53 51 93 N3 29.90R VSB 1/2 BEDFORD CLOUDY 52 50 93 N3 29.87R FOG BLUE HILL N/A 50 49 96 NW10 29.86R NORWOOD CLOUDY 53 52 96 CALM 29.88R FOG MARSHFIELD CLOUDY 52 52 100 CALM 29.87R PLYMOUTH CLOUDY 52 51 97 N3 29.87R TAUNTON CLOUDY 53 52 96 NW5 29.88R FOG NEW BEDFORD CLOUDY 54 53 97 CALM 29.86R $$ MAZALL-271100- CAPE COD AND THE ISLANDS CITY SKY/WX TMP DP RH WIND PRES REMARKS FALMOUTH N/A N/A N/A N/A MISG N/A HYANNIS CLOUDY 54 54 100 N3 29.85R FOG CHATHAM FOG 52 52 100 CALM 29.87R VSB 1/4 PROVINCETOWN CLOUDY 48 48 100 MISG 29.88R NANTUCKET CLOUDY 53 52 96 NE5 29.86R MARTHAS VNYRD LGT RAIN 54 53 97 VRB7 29.86R $$ MAZALL-271100- CENTRAL AND WESTERN MASSACHUSETTS CITY SKY/WX TMP DP RH WIND PRES REMARKS WORCESTER FOG 51 50 96 NE6 29.87S VSB 1/4 FITCHBURG CLOUDY 54 53 97 CALM 29.88S FOG ORANGE CLOUDY 53 53 100 CALM 29.88R FOG SPRINGFIELD CLOUDY 55 55 100 NE3 29.86R WESTFIELD CLOUDY 55 55 100 CALM 29.88R FOG NORTH ADAMS CLOUDY 53 51 93 CALM 29.87R PITTSFIELD CLOUDY 54 52 93 CALM 29.86R FOG $$ RIZALL-271100- RHODE ISLAND CITY SKY/WX TMP DP RH WIND PRES REMARKS PROVIDENCE CLOUDY 55 55 100 N6 29.88R FOG NEWPORT FOG 54 54 100 NW6 29.87R VSB 1/4 SMITHFIELD FOG 52 52 100 N3 29.89R VSB 1/4 WESTERLY CLOUDY 55 54 96 CALM 29.88R FOG $$ CTZALL-271100- CONNECTICUT CITY SKY/WX TMP DP RH WIND PRES REMARKS BRADLEY INTL CLOUDY 56 55 97 N5 29.88R HARTFORD CLOUDY 57 56 96 NE3 29.87R FOG BRIDGEPORT CLOUDY 57 54 89 CALM 29.87R DANBURY CLOUDY 56 56 100 CALM 29.88R GROTON CLOUDY 51 51 100 S3 29.86R FOG NEW HAVEN CLOUDY 55 54 96 CALM 29.87R FOG CHESTER CLOUDY 57 57 100 CALM 29.87R FOG MERIDEN CLOUDY 58 56 93 CALM 29.87R FOG WILLIMANTIC CLOUDY 58 56 93 CALM 29.88R OXFORD DRZL/FOG 55 52 88 CALM 29.89R VSB 1 $$ MEZ002-015-021-024-NHZ003-005-008-011-012-014-VTZ005-008-271100- NORTHERN NEW ENGLAND CITY SKY/WX TMP DP RH WIND PRES REMARKS PORTLAND ME DRIZZLE 49 49 100 E7 29.90R BANGOR ME CLOUDY 53 52 96 SE5 29.94R CONCORD NH FOG 54 53 97 NE3 29.89R VSB 3/4 MANCHESTER NH CLOUDY 54 51 90 NW3 29.88R NASHUA NH CLOUDY 53 53 100 CALM 29.89R FOG PORTSMOUTH NH CLOUDY 50 50 100 N3 29.88R FOG JAFFREY NH FOG 52 52 100 CALM 29.88R VSB 3/4 KEENE NH CLOUDY 53 53 100 CALM 29.88R BURLINGTON VT PTCLDY 52 51 97 S3 29.84R MT. WASHINGTON MOCLDY 45 41 87 S13 N/A $$ NYZ052-076-271100- EASTERN NEW YORK CITY SKY/WX TMP DP RH WIND PRES REMARKS ALBANY CLOUDY 59 54 83 CALM 29.86R NEW YORK CITY DRZL/FOG 57 56 96 CALM 29.86S VSB 1/2 $$ ANZALL-271100- MARINE OBSERVATIONS STATION/POSITION TIME TEMP WIND PRES VSBY WAVE AIR SEA DIR/SP/G HT/PER (UTC) (F) (DEG/KT/KT) (MB) (MI) (FT/S) BOSTON BUOY 0850 46 45 270/ 2/ 2 1010.4 5/10 BUZZARDS BAY 0900 52 340/ 4/ 4 1011.4R NANTUCKET SOUND 0950 46 1010.9R 1/ 5 MASS BAY-STELLWA 0904 46 45 60/ 6/ 8 1010.8R 5/ 9 ISLE OF SHOALS 0900 46 20/ 9/ 9 1011.2F S OF BLOCK IS 0955 47 N/A 9/11 $$ ......................KEY......................... SKY/WX - SKY CONDITION/PRESENT WEATHER TMP - TEMPERATURE IN FAHRENHEIT DWPT - DEWPOINT IN FAHRENHEIT RH - RELATIVE HUMIDITY IN PERCENT WIND - DIRECTION AND SPEED IN MPH PRES - MEAN SEA LEVEL PRESSURE IN INCHES OF HG WCI - WIND CHILL INDEX VSB - VISIBILITY IN MILES HX - HEAT INDEX TC - TEMPERATURE IN CELSIUS VRB - VARIABLE WIND DIRECTION N/A - NOT AVAILABLE

USA.gov is the U.S. government's official web portal to all federal, state and local government web resources and services.